Regional Weather Roundup
Issued by NWS Bismarck, ND

Current Version | Previous Version | Text Only | Print | Product List | Glossary On
Versions: 1 2 3 4 5 6 7 8 9 10 11 12 13 14 15 16 17 18 19 20 21 22 23 24 25 26 27 28 29 30 31 32 33 34 35 36 37 38 39 40 41 42 43 44 45 46 47 48 49 50
000
ASUS43 KBIS 250159
RWRBIS

NWR BROADCAST TEXT
NATIONAL WEATHER SERVICE BISMARCK ND
900 PM CDT THU JUL 24 2014

NOTE: "FAIR" INDICATES FEW OR NO CLOUDS BELOW 12,000 FEET WITH NO
SIGNIFICANT WEATHER AND/OR OBSTRUCTIONS TO VISIBILITY.


CITY           SKY/WX    TMP DP  RH WIND       PRES   REMARKS
WILLISTON      CLOUDY    80  67  64 VRB3      29.66R
MINOT          CLOUDY    73  66  78 E5        29.71R
MINOT AFB      NOT AVBL
BISMARCK       PTCLDY    76  65  68 SE20G28   29.68F
DICKINSON      NOT AVBL
GARRISON         N/A     72  67  84 SE7       29.68S
HETTINGER ARPT CLOUDY    78  67  68 NE10      29.71F THUNDER
JAMESTOWN      PTCLDY    71  63  75 SE23G31   29.70F
CARRINGTON     FAIR      70  70 100 S20G32    29.68F
CROSBY         TSTM      72  72 100 SW6       29.77R
HARVEY         FAIR      68  68 100 E7        29.70R
HAZEN          FAIR      73  64  73 SE12G22   29.67R
LINTON         CLOUDY    73  66  78 SE17G28   29.72S
MANDAN         FAIR      73  66  78 SE14G22   29.70S
RUGBY          FAIR      70  68  94 SE6       29.73R
TIOGA          FAIR      72  72 100 E5        29.75R
WATFORD CITY   FAIR      75  68  78 SE17G28   29.61F
$$

CITY           SKY/WX    TMP DP  RH WIND       PRES   REMARKS
GRAND FORKS    CLOUDY    72  61  68 SE16      29.75F
GRAND FORKS AF NOT AVBL
DEVILS LAKE    CLOUDY    72  63  73 SE12      29.73F
FARGO          MOCLDY    73  62  68 SE24G33   29.74F
CAVALIER       FAIR      72  63  73 SE5       29.76F
GRAFTON        FAIR      72  63  73 SE12      29.76R
GWINNER        CLOUDY    72  66  83 E10       29.85F
LANGDON        FAIR      66  61  82 SE12      29.78R
$$

CITY           SKY/WX    TMP DP  RH WIND       PRES   REMARKS
ABERDEEN       CLEAR     72  62  71 SE14G24   29.77F
MOBRIDGE       CLOUDY    73  65  75 E21G28    29.66F
BUFFALO          N/A     72  60  66 E13       29.65F
RAPID CITY     CLEAR     84  73  69 VRB3      29.69S HX  90
GLASGOW        CLEAR     72  37  28 NW20G29   29.77R
SIDNEY         CLOUDY    72  61  68 NW33G39   29.73R THUNDER
WOLF POINT     MOCLDY    72  53  51 NW22      29.76R
GLENDIVE       CLOUDY    68  57  68 N31G46    29.78R
MILES CITY     PTCLDY    75  50  41 N22G29    29.77R
BAKER          MOCLDY    81  68  64 SE13      29.65F
$$

CITY           SKY/WX    TMP DP  RH WIND       PRES   REMARKS
GREAT FALLS    CLEAR     67  31  26 W23G31    29.92R
REGINA         LGT RAIN  61  59  94 NE20G33   29.66F
$$




USA.gov is the U.S. government's official web portal to all federal, state and local government web resources and services.